Flag for Croatia Weather past 2 weeks in Zagreb, Croatia

Now
59 °F

Broken clouds.


Feels Like: 58 °F
Forecast: 54 / 73 °F
Wind: 8 mph from Northeast

Location: Zagreb / Pleso

Current Time: Aug 21, 2014 at 8:21:36 AM

Latest Report: Aug 21, 2014 at 8:00 AM


Visibility: N/A

Pressure: 29.98 "Hg

Humidity: 94%

Dew point: 57 °F

Location of ZagrebLocation

Historic Weather in Zagreb — Graph

°F

Zagreb temperature yesterday

Maximum temperature yesterday: 79 °F (at 1:00 PM)
Minimum temperature yesterday: 61 °F (at 2:30 AM)
Average temperature yesterday: 68 °F

Past Weeks' High & Low Weather Summary

 TemperatureHumidityPressure
High90 °F (Aug 11, 3:00 PM)100% (Aug 8, 12:30 AM)30.09 "Hg (Aug 8, 12:30 AM)
Low50 °F (Aug 18, 5:30 AM)41% (Aug 17, 2:30 PM)29.68 "Hg (Aug 13, 6:00 PM)
Average69 °F78%29.93 "Hg
* Reported Aug 6 7:00 AM — Aug 21 7:00 AM, Zagreb, Weather by CustomWeather, © 2014

Note: Actual official high and low records may vary slightly from our data, if they occured in-between our weather recording intervals... More about our weather records

Advertising

Zagreb weather history for previous 24 hours

 ConditionsComfort  
Time TempWeatherWind HumidityBarometerVisibility
7:00 AM
Aug 21
59 °FPassing clouds.8 mph94%29.95 "HgN/A
6:30 AM63 °FPassing clouds.5 mph100%29.92 "HgN/A
6:00 AM61 °FLight rain. Passing clouds.2 mph100%29.89 "HgN/A
5:30 AM63 °FThunderstorms. Passing clouds.5 mph94%29.89 "Hg3 mi
5:00 AM63 °FRain showers. Passing clouds.7 mph94%29.95 "Hg2 mi
4:30 AM63 °FThunderstorms. Passing clouds.7 mph94%29.89 "Hg2 mi
4:00 AM63 °FRain. Passing clouds.7 mph100%29.89 "HgN/A
3:30 AM63 °FLight rain. Passing clouds.6 mph100%29.89 "HgN/A
3:00 AM63 °FLight rain. Passing clouds.5 mph100%29.92 "HgN/A
2:30 AM63 °FThunderstorms. Overcast.5 mph100%29.92 "HgN/A
2:00 AM63 °FThunderstorms. Passing clouds.2 mph94%29.92 "HgN/A
1:30 AM64 °FLight rain. Passing clouds.3 mph88%29.92 "HgN/A
1:00 AM64 °FThundershowers. Overcast.6 mph88%29.92 "HgN/A
12:30 AM64 °FOvercast.5 mph88%29.95 "HgN/A
12:00 AM64 °FPassing clouds.6 mph88%29.95 "HgN/A
11:30 PM
Aug 20
64 °FPassing clouds.6 mph88%29.95 "HgN/A
11:00 PM64 °FPassing clouds.5 mph88%29.95 "HgN/A
10:30 PM66 °FPassing clouds.6 mph88%29.95 "HgN/A
10:00 PM64 °FPassing clouds.3 mph94%29.95 "HgN/A
9:30 PM66 °FPassing clouds.3 mph88%29.95 "HgN/A
9:00 PM66 °FPassing clouds.5 mph88%29.95 "HgN/A
8:30 PM68 °FPassing clouds.5 mph83%29.95 "HgN/A
8:00 PM68 °FPassing clouds.6 mph83%29.95 "HgN/A
7:30 PM70 °FPassing clouds.8 mph78%29.92 "HgN/A
7:00 PM72 °FPassing clouds.9 mph73%29.92 "HgN/A
6:30 PM72 °FPassing clouds.12 mph78%29.92 "HgN/A
6:00 PM73 °FPassing clouds.10 mph74%29.92 "HgN/A
5:30 PM73 °FPassing clouds.10 mph74%29.92 "HgN/A
5:00 PM72 °FThunderstorms. Passing clouds.10 mph78%29.92 "HgN/A
4:30 PM70 °FThunderstorms. Passing clouds.9 mph88%29.92 "HgN/A
4:00 PM70 °FPassing clouds.15 mph83%29.92 "HgN/A
3:30 PM73 °FScattered clouds.12 mph78%29.95 "HgN/A
3:00 PM79 °FPassing clouds.9 mph61%29.92 "HgN/A
2:30 PM77 °FPassing clouds.9 mph61%29.95 "HgN/A
2:00 PM75 °FScattered clouds.10 mph69%29.95 "HgN/A
1:30 PM77 °FScattered clouds.3 mph61%29.95 "HgN/A
1:00 PM79 °FScattered clouds.2 mph65%29.95 "HgN/A
12:30 PM75 °FScattered clouds.5 mph69%29.95 "HgN/A
12:00 PM75 °FScattered clouds.3 mph69%29.95 "HgN/A
11:30 AM75 °FPassing clouds.2 mph74%29.95 "HgN/A
10:30 AM72 °FPassing clouds.3 mph83%29.95 "HgN/A
10:00 AM70 °FPassing clouds.2 mph83%29.95 "HgN/A
9:30 AM68 °FPassing clouds.2 mph88%29.95 "HgN/A
9:00 AM66 °FSunny.No wind88%29.95 "Hg10 mi
8:30 AM64 °FSunny.1 mph94%29.95 "Hg10 mi
8:00 AM64 °FSunny.1 mph94%29.95 "Hg10 mi
Weather by CustomWeather, © 2014

See weather overviewHow to use our weather pages